This is the latest recevied weather packets stored in our database for station/object XE1E-15. If no packets are shown the sender has not sent any weather packets the latest 10 day(s).
| Time | Temp. | Humidity | Pressure | Rain* | Wind** | Luminosity | Snow |
|---|---|---|---|---|---|---|---|
| 1777670145 | 32.22° C | 20% | 1017.2 hPa | - | - | - | - |
| 1777667264 | 33.89° C | 20% | 1017.9 hPa | - | - | - | - |
| 1777666304 | 32.78° C | 21% | 1018.2 hPa | - | - | - | - |
| 1777665381 | 32.22° C | 21% | 1018.4 hPa | - | - | - | - |
| 1777665344 | 32.22° C | 21% | 1018.4 hPa | - | - | - | - |
| 1777663906 | 32.78° C | 21% | 1019 hPa | - | - | - | - |
| 1777662946 | 32.78° C | 20% | 1019.1 hPa | - | - | - | - |
| 1777660066 | 32.22° C | 21% | 1019.8 hPa | - | - | - | - |
| 1777659106 | 33.33° C | 20% | 1020 hPa | - | - | - | - |
| 1777658146 | 34.44° C | 21% | 1020.2 hPa | - | - | - | - |
| 1777656226 | 31.67° C | 22% | 1020.8 hPa | - | - | - | - |
| 1777654304 | 35° C | 21% | 1021.1 hPa | - | - | - | - |
| 1777653344 | 33.33° C | 22% | 1021.1 hPa | - | - | - | - |
| 1777652384 | 30.56° C | 23% | 1021.3 hPa | - | - | - | - |
| 1777651424 | 30.56° C | 24% | 1021.4 hPa | - | - | - | - |
| 1777650464 | 31.11° C | 25% | 1021.4 hPa | - | - | - | - |
| 1777649504 | 30° C | 26% | 1021.5 hPa | - | - | - | - |
| 1777648544 | 28.33° C | 27% | 1021.4 hPa | - | - | - | - |
| 1777645663 | 26.67° C | 28% | 1021.5 hPa | - | - | - | - |
| 1777644703 | 26.11° C | 30% | 1021.4 hPa | - | - | - | - |
| 1777643743 | 25.56° C | 30% | 1021.3 hPa | - | - | - | - |
| 1777642305 | 25° C | 31% | 1021.3 hPa | - | - | - | - |
| 1777641345 | 23.89° C | 32% | 1021.2 hPa | - | - | - | - |
| 1777637504 | 23.33° C | 33% | 1020.7 hPa | - | - | - | - |
| 1777635584 | 23.89° C | 33% | 1020.5 hPa | - | - | - | - |
* Rain since midnight (hover to see other rain measurements)
** Current wind speed in m/s (hover to see current wind gust speed)